Wind_Speed
44 50 48 50 52 51 47 43 40 38 35 32 30 28 27 25 24 23 22 20 19 17 15 14 12 12 11 10 11 12 13 14 13 13 16 16 17 18 19 23 25 24 21 19 20
47 47 49 48 49 47 45 43 40 37 34 31 29 27 26 24 23 22 21 19 17 16 14 13 11 11 11 12 12 12 14 15 16 16 16 18 18 18 21 27 24 22 22 21 18
45 46 48 46 47 47 45 43 40 36 33 30 28 27 26 24 23 21 20 17 16 15 13 11 11 11 11 11 10 12 15 16 20 19 19 18 20 20 23 23 25 26 26 25 23
43 45 44 45 46 47 44 43 39 35 32 30 28 27 25 23 22 20 18 16 15 14 12 12 11 11 12 12 12 12 15 15 19 21 18 16 19 19 24 22 26 28 27 29 29
44 42 40 42 44 44 44 42 38 35 32 29 28 26 24 23 21 19 17 16 15 14 13 13 12 12 13 12 11 13 15 16 18 17 16 14 17 22 27 28 29 31 32 32 31
39 38 37 36 36 40 42 41 37 33 31 29 28 26 24 21 20 18 17 16 14 14 14 13 12 12 13 11 11 11 11 15 15 16 15 16 20 24 26 27 28 27 27 28 28
31 30 31 33 36 39 43 39 35 32 30 29 28 26 24 22 20 19 18 16 15 14 13 13 12 12 12 9 10 10 12 15 15 17 13 13 18 24 23 24 22 23 24 26 28
31 31 31 33 36 41 42 37 34 32 31 30 28 25 23 22 20 19 17 16 14 13 12 12 12 11 10 10 10 11 10 14 16 14 14 14 18 25 27 27 28 27 26 26 26
29 31 33 34 37 43 39 35 33 31 31 29 26 25 22 21 19 18 16 14 13 13 12 12 12 11 10 11 10 8 8 12 18 14 15 17 16 20 27 28 28 27 28 30 31
25 29 33 36 42 38 34 32 31 30 29 27 25 23 22 20 18 17 15 14 14 13 13 12 11 10 8 10 8 10 10 12 15 17 20 23 21 21 25 29 31 31 32 33 34
24 28 35 39 36 33 30 29 28 27 26 24 22 20 19 18 17 16 16 16 15 12 11 11 10 9 10 10 9 10 11 13 18 21 22 24 27 28 28 30 33 34 35 36 37
27 29 32 31 29 27 26 25 24 23 22 20 19 18 17 17 17 16 16 13 12 10 10 10 9 9 9 9 10 11 13 16 19 23 25 28 29 29 29 30 32 34 36 37 39
26 29 30 30 30 29 27 26 25 23 22 20 19 18 17 16 14 14 13 12 10 10 9 8 9 9 11 11 13 15 17 19 21 25 28 32 32 30 29 30 31 31 33 35 38
23 23 24 24 23 23 23 24 22 20 20 19 18 16 15 15 15 13 11 11 11 9 8 9 9 10 13 14 16 18 22 23 24 26 28 31 38 32 33 34 37 38 40 43 45
17 19 20 20 20 20 19 19 19 17 18 17 15 14 14 13 13 12 11 10 9 10 10 9 12 14 15 16 18 21 23 25 27 29 29 31 40 38 38 41 45 47 50 53 54
16 16 15 15 15 15 14 14 15 15 15 12 13 13 14 13 13 12 11 11 11 12 13 12 12 15 16 17 18 21 24 27 27 30 33 36 40 42 46 50 52 54 56 58 60
12 12 11 12 12 13 13 14 14 15 11 11 11 12 12 12 12 13 13 13 13 12 12 12 13 15 18 19 21 23 26 29 33 34 39 40 44 47 51 53 55 58 60 62 63
9 10 10 10 10 11 12 13 13 14 12 11 12 12 12 13 14 15 15 14 13 13 13 15 16 19 21 22 23 25 28 33 37 39 40 42 46 49 50 55 57 60 62 64 65
7 7 7 8 9 10 11 12 13 11 12 12 13 14 14 14 15 15 16 15 15 16 16 17 19 21 22 23 27 29 33 37 40 43 44 46 47 49 52 56 58 62 63 64 67
7 9 9 10 10 11 11 12 12 12 13 14 14 15 15 15 15 16 16 16 17 18 19 21 22 23 25 28 31 34 38 41 43 46 50 50 50 50 55 59 61 63 64 66 67
6 9 10 12 13 13 13 13 13 14 15 15 15 16 16 15 15 15 16 17 17 19 22 24 25 28 31 33 36 39 41 43 44 47 52 55 52 51 57 60 63 65 66 67 67
6 7 9 10 12 12 13 13 15 15 15 14 14 15 15 16 16 16 17 19 22 24 26 28 29 32 34 37 39 41 44 46 48 51 53 57 54 54 56 60 63 65 66 67 68
8 8 9 10 11 12 12 13 14 14 14 14 15 16 16 17 19 21 23 25 27 29 31 32 34 37 40 41 43 44 46 47 51 53 52 58 54 56 59 61 62 65 66 66 71
15 13 13 13 13 14 14 15 16 16 17 17 18 19 20 21 23 25 26 27 30 32 35 37 38 41 44 46 46 46 47 49 52 55 57 55 59 51 59 60 61 63 67 71 73
17 19 20 19 19 19 19 20 21 21 22 23 23 24 25 26 28 29 31 32 34 36 38 41 42 44 46 47 48 48 45 49 54 56 59 56 62 58 61 64 65 68 69 71 74
19 19 21 24 25 26 26 26 26 27 28 29 30 31 31 32 33 34 36 37 38 40 42 44 47 48 47 49 51 48 45 51 54 56 58 61 60 61 62 65 69 68 69 74 75
23 23 25 26 25 26 27 29 30 31 31 32 34 35 35 37 38 40 41 42 43 44 46 47 50 53 53 52 54 52 51 52 55 57 59 59 60 62 63 68 69 67 73 77 81
Wind_Direction
175 174 170 182 183 185 184 182 180 182 185 188 190 190 189 187 189 194 197 198 193 198 203 210 211 220 222 223 226 232 247 260 264 270 278 284 293 300 299 290 293 301 298 284 278
170 168 166 179 179 178 178 177 177 178 181 185 186 187 185 184 187 193 195 197 198 198 204 207 214 223 227 230 238 247 255 263 267 266 273 283 290 296 294 291 300 294 286 281 284
166 156 163 174 173 174 174 173 174 175 178 181 182 181 182 182 186 190 192 194 198 200 205 213 218 227 237 244 247 251 253 259 266 268 268 277 290 294 290 290 288 281 288 293 293
151 148 161 170 171 173 171 170 170 172 176 178 178 178 181 180 184 187 190 193 195 200 205 218 229 237 245 252 256 264 272 268 271 276 286 291 285 295 286 283 278 287 288 292 295
141 147 160 169 173 170 168 167 167 170 173 174 174 175 178 179 182 184 187 192 195 202 212 222 232 246 256 260 267 267 278 284 283 286 288 290 286 279 280 283 286 288 290 292 296
138 149 161 166 165 169 165 164 166 168 170 170 172 175 177 179 181 185 187 194 201 209 218 230 241 252 260 267 270 274 275 276 284 282 283 290 286 280 282 290 292 296 299 301 304
134 143 150 157 163 165 163 164 165 166 167 169 173 175 178 182 184 188 192 197 207 217 227 238 244 251 259 264 262 271 274 281 282 284 294 285 282 281 287 291 297 300 301 299 297
135 144 151 155 159 160 160 163 164 164 167 172 175 176 180 184 188 195 199 206 213 222 229 237 240 243 252 265 267 277 277 280 280 285 288 277 269 283 290 301 304 301 297 294 293
133 142 147 152 155 155 160 162 163 165 169 172 175 179 184 186 193 200 205 211 217 222 226 232 241 248 256 261 263 267 264 270 281 290 290 287 289 287 289 295 296 297 299 301 301
129 143 147 150 151 156 159 161 164 167 170 172 177 180 184 189 194 203 209 212 217 220 229 242 251 256 251 254 267 272 274 278 283 294 294 297 297 289 286 289 292 294 294 294 294
120 137 145 148 154 157 159 163 166 169 172 176 182 183 192 194 199 206 211 216 223 230 238 245 245 253 255 262 266 273 279 286 291 294 294 294 296 295 296 296 295 294 292 291 289
125 135 144 149 153 157 160 164 168 173 178 183 193 192 199 203 208 215 222 227 228 228 228 237 254 257 263 272 278 282 287 288 291 294 295 297 297 298 298 297 294 292 291 290 289
132 138 147 153 157 160 165 170 173 181 187 193 197 201 209 217 221 219 223 223 222 220 225 234 243 263 276 284 289 292 295 297 297 299 301 305 306 312 309 302 302 298 296 295 296
131 139 148 155 163 169 173 177 180 187 194 201 205 210 217 220 221 216 208 216 220 222 228 241 254 264 276 287 296 300 301 302 303 302 305 309 311 320 318 317 311 308 306 305 304
134 145 152 158 162 170 175 179 180 191 195 208 209 207 209 210 210 210 208 213 220 233 239 241 258 271 282 295 302 304 302 305 306 307 308 309 312 321 319 315 312 309 307 306 305
129 136 142 149 157 166 172 178 187 196 188 203 202 207 210 209 212 211 221 229 231 239 256 260 269 283 295 301 306 305 306 307 310 312 313 313 311 322 319 314 310 307 305 305 305
125 132 143 154 161 167 173 180 189 187 203 198 203 208 208 208 212 225 228 237 240 247 255 271 283 289 296 302 302 304 308 312 315 316 316 316 313 314 311 309 308 306 305 305 305
137 147 157 167 172 180 185 188 190 201 215 214 218 215 214 220 221 229 239 240 246 257 267 276 285 292 295 296 304 313 317 316 314 312 310 311 310 310 311 308 307 307 307 307 307
158 166 176 181 190 196 202 206 213 219 218 214 215 222 227 227 235 237 241 251 258 261 270 278 283 288 296 306 313 313 311 311 309 308 308 307 306 307 309 305 305 306 307 308 306
194 195 197 205 209 208 210 214 218 219 220 223 227 231 237 239 237 240 247 259 267 275 282 284 289 297 306 308 307 309 309 309 308 308 305 306 305 310 304 306 308 309 309 309 309
205 206 210 211 212 217 220 222 222 224 226 230 235 240 244 243 248 256 261 269 276 282 284 289 297 302 306 306 306 306 305 305 305 304 303 304 306 309 307 308 310 310 311 310 309
225 231 226 228 220 223 227 231 229 227 226 229 234 236 244 254 260 268 278 281 283 288 292 297 301 303 304 305 304 304 306 306 304 304 304 303 310 307 309 309 310 309 311 311 310
238 238 237 232 232 229 228 230 233 234 237 238 242 249 256 266 275 284 285 286 291 295 297 300 301 302 301 301 303 305 305 306 305 304 304 302 311 310 308 310 310 310 308 307 306
257 253 252 248 245 248 249 248 249 249 252 257 262 267 272 278 281 283 284 289 292 295 297 299 301 301 302 302 302 305 307 308 307 306 304 310 306 312 308 308 306 306 306 307 308
259 259 261 259 260 259 257 257 258 260 262 265 268 272 276 278 281 283 286 288 290 293 296 297 299 298 299 299 300 304 309 311 310 306 305 309 308 309 308 308 309 309 309 308 312
269 267 264 265 265 265 265 265 267 270 271 273 275 277 279 280 282 284 285 287 289 291 292 294 295 296 297 298 299 302 308 308 308 308 308 308 309 307 308 308 311 313 312 313 314
273 271 269 268 269 270 270 270 270 272 272 274 276 277 279 280 281 283 284 285 287 288 290 292 294 296 296 297 296 299 304 306 308 309 308 307 309 307 308 312 314 314 314 316 317
Height
5738 5749 5761 5776 5787 5799 5810 5820 5830 5838 5847 5853 5859 5865 5870 5874 5879 5883 5887 5891 5893 5896 5899 5901 5903 5905 5906 5907 5908 5909 5910 5910 5911 5911 5910 5910 5909 5909 5908 5904 5904 5904 5904 5903 5901
5740 5750 5763 5777 5788 5799 5810 5821 5830 5839 5846 5853 5859 5865 5869 5874 5878 5882 5886 5889 5892 5895 5898 5900 5901 5903 5904 5906 5907 5908 5908 5909 5908 5908 5908 5907 5907 5906 5904 5899 5901 5900 5896 5895 5898
5745 5753 5766 5780 5790 5801 5811 5821 5831 5839 5847 5853 5859 5864 5869 5873 5877 5882 5885 5888 5891 5894 5896 5898 5900 5901 5902 5903 5905 5905 5905 5906 5904 5905 5905 5905 5904 5903 5900 5899 5896 5891 5892 5893 5894
5751 5759 5772 5783 5793 5802 5813 5823 5832 5840 5847 5853 5859 5864 5869 5873 5878 5881 5885 5888 5890 5893 5895 5897 5898 5899 5900 5901 5902 5902 5902 5902 5901 5900 5902 5903 5901 5900 5894 5895 5890 5890 5890 5889 5889
5758 5767 5778 5787 5795 5806 5816 5825 5833 5840 5847 5854 5859 5864 5869 5873 5877 5881 5884 5887 5889 5892 5893 5895 5895 5896 5897 5898 5900 5899 5898 5898 5898 5898 5898 5898 5897 5893 5889 5887 5887 5885 5884 5884 5884
5766 5775 5783 5793 5802 5810 5819 5828 5835 5842 5848 5854 5860 5864 5869 5874 5877 5880 5883 5885 5888 5890 5891 5893 5893 5894 5895 5896 5896 5896 5896 5894 5894 5893 5895 5895 5891 5887 5884 5883 5883 5881 5880 5879 5879
5777 5784 5791 5798 5804 5813 5822 5830 5837 5843 5849 5855 5860 5864 5869 5874 5876 5879 5881 5883 5886 5888 5889 5890 5891 5892 5893 5893 5893 5893 5893 5891 5891 5890 5890 5890 5886 5881 5881 5880 5878 5878 5876 5875 5872
5784 5790 5795 5801 5808 5816 5825 5833 5839 5845 5850 5856 5860 5865 5869 5873 5875 5878 5880 5883 5885 5886 5887 5887 5888 5889 5890 5890 5890 5890 5890 5888 5886 5887 5886 5885 5882 5879 5876 5875 5874 5873 5872 5871 5869
5791 5795 5800 5806 5813 5821 5829 5836 5841 5847 5852 5856 5861 5865 5870 5872 5875 5877 5879 5881 5882 5883 5884 5885 5886 5887 5887 5887 5887 5887 5887 5886 5883 5884 5882 5881 5880 5878 5873 5871 5870 5869 5868 5866 5864
5798 5802 5807 5812 5819 5826 5833 5838 5844 5849 5854 5857 5861 5867 5869 5871 5873 5875 5877 5879 5880 5881 5882 5884 5884 5884 5884 5884 5885 5884 5884 5883 5881 5880 5877 5875 5875 5874 5872 5869 5867 5865 5863 5861 5858
5806 5809 5814 5820 5826 5832 5837 5842 5848 5853 5855 5859 5862 5865 5868 5870 5872 5873 5875 5876 5878 5879 5880 5881 5881 5881 5881 5881 5881 5881 5881 5880 5877 5874 5873 5871 5869 5867 5866 5863 5861 5858 5856 5853 5850
5814 5817 5822 5828 5833 5837 5841 5845 5850 5854 5857 5859 5862 5865 5867 5868 5870 5872 5874 5875 5876 5876 5877 5879 5878 5878 5878 5878 5878 5878 5877 5876 5873 5870 5868 5864 5862 5861 5860 5857 5854 5850 5847 5843 5840
5820 5823 5827 5832 5836 5840 5844 5847 5850 5853 5857 5859 5861 5863 5866 5867 5868 5870 5871 5872 5873 5874 5875 5875 5876 5875 5875 5875 5875 5874 5873 5871 5870 5865 5861 5856 5853 5853 5851 5848 5844 5841 5838 5834 5830
5827 5830 5833 5836 5840 5842 5846 5848 5851 5854 5857 5859 5860 5863 5864 5864 5866 5867 5869 5870 5870 5871 5872 5872 5873 5872 5872 5871 5871 5869 5867 5865 5862 5860 5856 5850 5843 5845 5842 5838 5834 5830 5826 5823 5819
5831 5834 5836 5839 5841 5844 5847 5849 5852 5854 5857 5859 5860 5861 5862 5864 5865 5866 5867 5868 5869 5869 5871 5871 5870 5869 5868 5867 5866 5864 5860 5858 5855 5851 5849 5845 5836 5836 5834 5829 5825 5820 5816 5811 5807
5835 5837 5839 5841 5843 5845 5847 5850 5852 5855 5856 5857 5858 5859 5861 5862 5864 5865 5865 5866 5867 5867 5866 5866 5865 5864 5862 5862 5860 5857 5853 5850 5847 5843 5840 5837 5831 5829 5824 5820 5815 5810 5805 5800 5796
5838 5839 5841 5842 5844 5846 5848 5850 5852 5854 5856 5858 5858 5858 5860 5861 5862 5863 5863 5863 5863 5863 5862 5861 5860 5859 5857 5856 5854 5850 5846 5842 5839 5835 5832 5828 5822 5820 5815 5809 5804 5798 5793 5789 5783
5840 5841 5843 5844 5845 5847 5849 5851 5852 5853 5854 5855 5856 5857 5858 5859 5860 5860 5859 5859 5859 5859 5858 5857 5856 5853 5852 5849 5846 5842 5838 5834 5829 5827 5825 5820 5816 5811 5805 5797 5791 5785 5781 5775 5768
5840 5842 5843 5844 5845 5847 5849 5850 5851 5852 5853 5854 5855 5855 5856 5856 5857 5857 5856 5856 5856 5855 5855 5852 5851 5849 5846 5842 5839 5835 5832 5828 5823 5819 5814 5812 5808 5803 5793 5786 5780 5774 5767 5761 5752
5841 5842 5842 5843 5845 5846 5848 5848 5849 5850 5851 5852 5852 5852 5852 5853 5854 5853 5853 5853 5852 5851 5849 5848 5846 5842 5839 5835 5832 5828 5824 5820 5815 5808 5803 5802 5797 5792 5781 5773 5765 5759 5751 5743 5733
5840 5841 5842 5842 5843 5845 5845 5846 5846 5847 5848 5849 5849 5849 5850 5850 5850 5849 5850 5849 5847 5845 5844 5841 5839 5835 5831 5827 5824 5820 5816 5812 5807 5802 5793 5788 5788 5780 5768 5759 5751 5742 5735 5727 5718
5839 5840 5840 5841 5843 5842 5843 5844 5844 5845 5845 5846 5847 5847 5847 5846 5846 5845 5844 5842 5841 5839 5836 5833 5830 5826 5823 5819 5816 5812 5806 5802 5797 5792 5785 5775 5778 5766 5759 5750 5739 5732 5722 5712 5703
5838 5839 5839 5840 5840 5841 5841 5842 5842 5843 5843 5843 5843 5842 5842 5841 5840 5838 5837 5836 5834 5831 5828 5824 5821 5818 5815 5813 5807 5802 5797 5792 5786 5780 5777 5765 5765 5754 5746 5739 5728 5716 5710 5702 5691
5838 5838 5838 5838 5838 5838 5838 5839 5839 5839 5839 5838 5838 5837 5836 5834 5833 5832 5830 5828 5826 5823 5819 5816 5814 5810 5806 5801 5797 5793 5787 5781 5775 5768 5761 5759 5748 5747 5731 5725 5721 5711 5696 5685 5672
5833 5833 5834 5834 5835 5834 5834 5834 5834 5834 5833 5832 5832 5831 5830 5828 5826 5824 5822 5820 5818 5814 5811 5807 5805 5801 5797 5793 5787 5783 5778 5770 5762 5753 5746 5747 5734 5728 5720 5711 5701 5691 5682 5669 5657
5828 5828 5829 5829 5829 5829 5829 5828 5828 5828 5827 5826 5825 5823 5822 5821 5819 5816 5813 5811 5809 5806 5801 5798 5793 5790 5788 5782 5775 5773 5767 5761 5752 5743 5735 5728 5725 5710 5707 5695 5686 5675 5661 5652 5640
5822 5822 5823 5822 5822 5822 5822 5821 5821 5820 5819 5818 5816 5815 5814 5812 5809 5807 5804 5801 5799 5795 5791 5787 5782 5777 5774 5771 5764 5762 5757 5749 5742 5733 5723 5716 5711 5702 5693 5679 5668 5658 5645 5631 5619